Location: Saint-Hippolyte
(43.6394°N, 4.7559°E)
Time: 15:18:34
(UTC+00:00)

ATLAS 2AS CENTAUR R/B - Pass Details

Date: 24 October 2020
Orbit: 939 x 1273 km, 63.7° (Epoch: 23 November)

Event Time Altitude Azimuth Distance (km) Brightness Sun altitude
Rises 20:07:48 0° 324° (NW) 4,147 6.5 -37.3°
Reaches altitude 10° 20:10:43 10° 328° (NNW) 3,139 5.6 -37.8°
Enters shadow 20:15:19 38° 347° (NNW) 1,709 3.9 -38.6°
